User: anonymous   Login
Location: Endfield
(51.6667°N, 0.0667°W)
Time: 06:06:26
(UTC+00:00)
Language:

NOSS 8 (A) - Orbit

View from above orbital plane
View from above orbital plane
View from above satellite
View from above satellite

Ground track
Ground track

The orbit data is extracted from the following two-line orbital elements,

1 17997U 87043A   24201.89682789  .00034109  00000-0  17394-2 0  9994
2 17997  63.2933  28.7008 0822618  94.6665 274.8714 13.82167847  8894
Epoch (UTC): 19 July 2024 21:31:25
Eccentricity: 0.0822618
inclination: 63.2933°
perigee height: 353 km
apogee height: 1559 km
right ascension of ascending node: 28.7008°
argument of perigee: 94.6665°
revolutions per day: 13.82167847
mean anomaly at epoch: 274.8714°
orbit number at epoch: 889

The dashed part of the orbit path shows where the satellite is in the earth's shadow,  

DLR